Overview Statistics Trail Chart Weather Telemetry Raw packets
 

This is the latest recevied weather packets stored in our database for station/object KD0MAC. If no packets are shown the sender has not sent any weather packets the latest 10 day(s).

<< 109 110 111 112 113 114 115 >>
Time Temp. Humidity Pressure Rain* Wind** Luminosity Snow
1787861109 33.33° C 45% 1019.6 hPa 0 mm - 538 W/m² -
1787860813 32.78° C 44% 1019.6 hPa 0 mm - 529 W/m² -
1787860509 32.78° C 48% 1019.6 hPa 0 mm - 529 W/m² -
1787860210 32.22° C 48% 1019.6 hPa 0 mm - 533 W/m² -
1787859909 32.78° C 44% 1020 hPa 0 mm - 529 W/m² -
1787859608 32.78° C 48% 1020 hPa 0 mm - 544 W/m² -
1787859309 32.78° C 50% 1020 hPa 0 mm - 532 W/m² -
1787859009 32.22° C 47% 1020 hPa 0 mm - 527 W/m² -
1787858708 32.22° C 51% 1020 hPa 0 mm - 529 W/m² -
1787858409 32.22° C 48% 1020 hPa 0 mm - 528 W/m² -
1787858108 32.22° C 49% 1020 hPa 0 mm - 532 W/m² -
1787857809 32.22° C 49% 1020.3 hPa 0 mm - 529 W/m² -
1787857509 31.67° C 50% 1020.3 hPa 0 mm - 532 W/m² -
1787857214 31.67° C 50% 1020.3 hPa 0 mm - 530 W/m² -
1787856909 31.67° C 51% 1020.7 hPa 0 mm - 537 W/m² -
1787856609 32.22° C 50% 1020.7 hPa 0 mm - 532 W/m² -
1787856308 32.22° C 50% 1020.7 hPa 0 mm - 534 W/m² -
1787856011 32.22° C 51% 1020.7 hPa 0 mm - 543 W/m² -
1787855709 31.67° C 52% 1020.7 hPa 0 mm - 537 W/m² -
1787855408 31.11° C 51% 1020.7 hPa 0 mm - 538 W/m² -
1787855109 31.11° C 53% 1020.7 hPa 0 mm - 536 W/m² -
1787854811 31.67° C 53% 1020.7 hPa 0 mm - 539 W/m² -
1787854509 31.11° C 53% 1020.7 hPa 0 mm - 536 W/m² -
1787854209 31.11° C 52% 1020.7 hPa 0 mm - 533 W/m² -
1787853908 31.11° C 53% 1020.7 hPa 0 mm - 530 W/m² -

* Rain latest hour (hover to see other rain measurements)
** Current wind speed in m/s (hover to see current wind gust speed)